Regional Weather Roundup
Issued by NWS

Home | Current Version | Previous Version | Text Only | Print | Product List | Glossary On
Versions: 1 2 3 4 5 6 7 8 9 10 11 12 13 14 15 16 17 18 19 20 21 22 23 24 25 26 27 28
000
ASUS44 KLIX 260811
RWRLA
LOUISIANA WEATHER ROUNDUP
NATIONAL WEATHER SERVICE NEW ORLEANS LA
300 AM CDT FRI AUG 26 2016

NOTE: "FAIR" INDICATES FEW OR NO CLOUDS BELOW 12,000 FEET WITH NO
      SIGNIFICANT WEATHER AND/OR OBSTRUCTIONS TO VISIBILITY.
      SKY/WX - SKY CONDITION AND SIGNIFICANT WEATHER.
      TMP - AIR TEMPERATURE.    DP   - DEWPOINT TEMPERATURE.
      RH  - RELATIVE HUMIDITY.  PRES - PRESSURE.
      HX  - HEAT INDEX.         WCI  - WIND CHILL INDEX.

*  THESE STATIONS ARE NOT NWS OR FAA STATIONS AND ARE NOT UNDER
   NWS QUALITY CONTROL.

LAZ040-048-061>063-065-066-069-260900-
SOUTHEAST LOUISIANA

CITY           SKY/WX    TMP DP  RH WIND       PRES   REMARKS
N.O. AUDUBON     N/A     79  75  89 MISG        N/A
N.O. INTL ARPT FAIR      82  78  88 NE3       30.01F
N.O. LAKEFRONT FAIR      83  77  82 NE14      30.01F
N.O. DOWNTOWN* FAIR      81  76  84 CALM      30.02F
RESERVE*       FAIR      79  77  94 N7        30.02F
SLIDELL        MOCLDY    75  75 100 NE5       30.02F
BATON ROUGE    MOCLDY    76  74  93 N5        30.03F
BOOTHVILLE       N/A     83  73  72 E8        29.99F
BELLE CHASSE   NOT AVBL
BOGALUSA*      FAIR      75  72  89 CALM      30.06S
GALLIANO*      FAIR      78  78 100 CALM      30.00F
NEW ROADS*     CLOUDY    75  75 100 N3        30.04F FOG
GONZALES*      PTSUNNY   75  75 100 CALM      30.02S
HAMMOND*       FAIR      73  70  88 CALM      30.03S
HOUMA*         FAIR      75  75  99 CALM      30.01F FOG
PORT FOURCHON* SUNNY     84  72  65 E12G17    29.99F

$$

LAZ041-044-053-054-260900-
SOUTHWEST LOUISIANA

CITY           SKY/WX    TMP DP  RH WIND       PRES   REMARKS
LAKE CHARLES   CLOUDY    76  75  97 NE7       30.02F
LAFAYETTE      CLOUDY    77  75  93 N6        30.04R FOG
PATTERSON      FAIR      76  75  97 N3        30.03F
SALT POINT       N/A     77  75  93 CALM      30.01S
NEW IBERIA     FAIR      75  74  96 N3        30.03F FOG
CHENAULT AIRPK CLOUDY    75  73  94 CALM      30.03F

$$

LAZ027-028-260900-
CENTRAL LOUISIANA

CITY           SKY/WX    TMP DP  RH WIND       PRES   REMARKS
FORT POLK      CLOUDY    73  72  96 VRB5      30.03F
ALEXANDRIA INT FAIR      73  73 100 E5        30.01F
ALEXANDRIA     CLOUDY    74  74 100 E6        30.03F

$$

LAZ001-002-260900-
NORTHWEST LOUISIANA

CITY           SKY/WX    TMP DP  RH WIND       PRES   REMARKS
SHREVEPORT     CLOUDY    74  74 100 W3        30.01F
BARKSDALE AFB  FAIR      73  73 100 SE5       30.01F
DTN SHREVEPORT FAIR      74  72  93 CALM      30.01F

$$

LAZ014-016-260900-
NORTHEAST LOUISIANA

CITY           SKY/WX    TMP DP  RH WIND       PRES   REMARKS
MONROE         CLOUDY    75  75 100 S6        30.03F
TALLULAH       MOCLDY    76  74  93 SE3       30.03F

$$





USA.gov is the U.S. government's official web portal to all federal, state and local government web resources and services.